Location: Unspecified
(0.0000°N, 0.0000°E)
Time: 20:23:48
(UTC+00:00)

SRMSAT - Pass Details

Date: 14 December 2017
Orbit: 849 x 866 km, 20.0° (Epoch: 23 June)

Event Time Altitude Azimuth Distance (km) Brightness Sun altitude
Exits shadow 03:51:17 39° 24° (NNE) 1,267 ? -28.1°
Drops below altitude 10° 03:55:23 10° 54° (NE) 2,485 ? -27.2°
Sets 03:58:02 0° 59° (ENE) 3,422 ? -26.6°
